Showing default

O3B FM11, 40349

Orbit data source: Space-Track

O3B FM11, 40349 is a payload satellite owned by O3B (JE) that was launched on Thu, 18 Dec 2014 UTC via a SOYUZ-ST-B launch vehicle from the French Guiana (FRGUI). Payload-class satellites include a variety of spacecraft equipped with specific instruments for various scientific and technological missions. These include communications satellites like Starlink; space stations such as the ISS; scientific satellites like the Hubble; Earth observation satellites from companies like Planet Labs, Umbra, and HawkEye 360; GPS; miniature CubeSats for education and research; and military/defense satellites.

Loading next visibility...
Identifier
40349, 2014-083B
Orbit
Active
Last TLE update
15 hours ago
Origin
Manufacturer
Thales Alenia
Mission
Operational Commercial Communications
Bus & Motor
PRISMA?, LS-400 AOCS?
Mass
700 kg wet, ~500 kg dry
Launch date (UTC)
2014-12-18 (11 years ago)
Launch vehicle
SOYUZ-ST-B
Launch site
French Guiana (FRGUI)
Object type
Payload
Rocket body
Debris
Shape & HBR
Trap Box + 2 Pan, 12 m
Radar Cross Section
21.980 m², Large (>1 m²)

Expand to show TLE details & history

TLE from 15 hours ago
0 O3B FM11
1 40349U 14083B   25186.36194565 -.00000019  00000-0  00000-0 0  9998
2 40349   0.0440 359.5773 0003226 113.1139 247.3424  5.00115719192569
Epoch: 2025-07-05T08:41Z
TLE epoch observation values (Epoch: 2025-07-05T08:41:12.104Z)
Latitude
-0.00049°
Longitude
-53.90155°
Altitude
8,066.163 km
Speed
5.254 km/s
True Right ascension
23h 59m 59s
True Declination
0° 00' 02"
Sunlit
Object was in daylight at epoch
Visualization orbit readout
Latitude
0.035°
Longitude
-7.43648°
Altitude
8,062.506 km
Speed
5.255 km/s
Apparent Right ascension
02h 16m 04s
Apparent Declination
-12° 47' 48"
Sunlit
Object is in daylight
Visualization observer readout
Local Sidereal Time
11:38:16
Azimuth
296.824° NW
Elevation
-46.028°
Doppler factor
1
Orbital elements
Apogee altitude
8,073.605 km
Perigee altitude
8,064.284 km
Semi-major axis
14,447.081 km
Eccentricity
0.00032
Inclination
0.044°
RAAN
359.5773°
Arg. of periapsis
113.1139°
True anomaly
Unknown
Mean anomaly
247.3424°
Eccentric anomaly
Unknown
Mean motion
1.24989 °/min
Orbital period
288.02 mins
BSTAR
0
Loading maneuver chart data...
Loading SW <> Apogee altitude chart data...
Loading historical data...
Loading historical data...
Loading historical data...
Loading historical data...
Loading historical data...
Loading historical data...
Loading historical data...
Other satellites on launch #83 in the year 2014 (2014-12-18 UTC)

O3B FM11 Visibility forecast

Observer location: undefined°, undefined°

Span
Click to sort rows by Start time (UTC) header in descending order
Start Az.
Max El. time (UTC)
Max El. Az.
Max El.
End time (UTC)
End Az.
80 mins2025-07-06 01:09:52.821Z232.694° WSW2025-07-06 01:49:52.821Z180.052° SSW24.35°2025-07-06 02:29:52.821Z127.447° SE
79 mins2025-07-06 07:10:52.821Z231.658° WSW2025-07-06 07:49:52.821Z180.113° SSW24.336°2025-07-06 08:29:52.821Z127.471° SE
79 mins2025-07-06 13:10:52.821Z231.73° WSW2025-07-06 13:49:52.821Z180.168° SSW24.39°2025-07-06 14:29:52.821Z127.419° SE
79 mins2025-07-06 19:10:52.821Z231.778° WSW2025-07-06 19:49:52.821Z180.106° SSW24.403°2025-07-06 20:29:52.821Z127.396° SE
|